Location: Pasadena, ca
(34.1243°N, 118.1037°W)
Time: 23:13:45
(UTC-08:00)

Vanguard 2 Rocket - Visible Passes

Search period start: 18 January 2018 00:00
Search period end: 28 January 2018 00:00
Orbit: 556 x 3326 km, 32.9° (Epoch: 18 January)

Date Brightness Start Highest point End Pass type
(mag) Time Alt. Az. Time Alt. Az. Time Alt. Az.
18 Jan 10.4 05:20:18 10° SSW 05:29:55 21° SSE 05:36:48 10° ESE visible
19 Jan 10.7 04:21:02 10° S 04:29:21 16° SSE 04:35:54 10° ESE visible
20 Jan 11.0 03:24:02 10° SSE 03:28:30 11° SSE 03:32:30 10° SE visible
20 Jan 9.9 05:32:02 10° SSW 05:44:40 32° SSE 05:52:45 10° E visible
21 Jan 10.2 04:31:30 10° SSW 04:44:05 26° SSE 04:52:51 10° E visible
22 Jan 10.6 03:31:46 10° S 03:43:14 21° SSE 03:52:04 10° ESE visible
22 Jan 9.4 05:44:49 10° SW 05:59:19 45° SSE 06:07:58 10° E visible
23 Jan 10.8 02:33:35 10° S 02:42:11 15° SE 02:49:33 10° ESE visible
23 Jan 9.8 04:43:32 10° SSW 04:58:43 38° SSE 05:08:30 10° E visible
24 Jan 10.2 03:42:48 10° SSW 03:57:48 31° SSE 04:08:27 10° E visible
24 Jan 9.1 05:58:17 10° SW 06:13:55 59° SSE 06:22:52 10° E visible
25 Jan 10.5 02:44:06 12° S 02:56:42 24° SE 03:07:32 10° E visible
25 Jan 9.4 04:56:26 10° SW 05:13:15 51° SSE 05:23:35 10° E visible
26 Jan 10.7 01:50:26 16° SSE 01:55:30 18° SE 02:05:06 10° ESE visible
26 Jan 9.8 03:56:26 13° SSW 04:12:16 43° SSE 04:23:53 10° E visible
26 Jan 8.8 06:12:15 10° WSW 06:28:29 71° SSE 06:37:35 10° E visible
27 Jan 11.0 00:56:06 11° SE 00:56:06 11° SE 00:58:22 10° SE visible
27 Jan 10.1 03:02:03 24° S 03:11:04 35° SSE 03:23:36 10° E visible
27 Jan 9.2 05:10:00 10° SW 05:27:46 64° SSE 05:38:24 10° E visible
